Location: Newark
(39.5667°N, 8.9833°E)
Time: 23:47:29
(UTC+00:00)

Explorer 7 - All Passes

Search period start: 15 October 2019 00:00
Search period end: 25 October 2019 00:00
Orbit: 485 x 680 km, 50.3° (Epoch: 15 October)

Date Brightness Start Highest point End Pass type
(mag) Time Alt. Az. Time Alt. Az. Time Alt. Az.
15 Oct - 11:16:37 10° S 11:19:39 24° SE 11:22:42 10° E daylight
15 Oct - 12:56:16 10° WSW 12:59:54 48° NNW 13:03:40 10° NE daylight
15 Oct - 14:38:20 10° NW 14:41:07 19° N 14:43:59 10° NE daylight
15 Oct - 16:19:43 10° NW 16:22:44 20° NNE 16:25:51 10° ENE daylight
15 Oct - 17:59:50 10° NW 18:03:52 56° NNE 18:08:10 10° ESE visible
15 Oct - 19:40:42 10° WNW 19:44:14 26° SW 19:47:57 10° S visible
16 Oct - 11:20:58 10° SSW 11:24:30 41° SE 11:28:05 10° ENE daylight
16 Oct - 13:01:36 10° W 13:05:02 33° NNW 13:08:34 10° NE daylight
16 Oct - 14:43:49 10° NW 14:46:26 17° N 14:49:07 10° NE daylight
16 Oct - 16:24:42 10° NW 16:27:59 24° NNE 16:31:24 10° ENE daylight
16 Oct - 18:04:48 10° NW 18:08:54 86° NNE 18:13:17 10° SE visible
16 Oct - 19:46:30 10° W 19:49:03 16° SW 19:51:42 10° SSW visible
17 Oct - 11:25:42 10° SW 11:29:25 74° SE 11:33:12 10° ENE daylight
17 Oct - 13:07:03 10° WNW 13:10:13 25° NNW 13:13:28 10° NE daylight
17 Oct - 14:49:09 10° NW 14:51:44 17° N 14:54:25 10° NE daylight
17 Oct - 16:29:37 10° NW 16:33:10 30° NNE 16:36:55 10° E daylight
17 Oct - 18:09:50 10° WNW 18:13:53 59° SW 18:18:10 10° SE visible
18 Oct - 09:51:55 10° S 09:54:20 16° SE 09:56:44 10° E daylight
18 Oct - 11:30:43 10° WSW 11:34:25 66° NNW 11:38:12 10° NE daylight
18 Oct - 13:12:35 10° WNW 13:15:28 20° NNW 13:18:23 10° NE daylight
18 Oct - 14:54:19 10° NW 14:57:03 18° N 14:59:51 10° NE daylight
18 Oct - 16:34:30 10° NW 16:38:19 42° NNE 16:42:19 10° E daylight
18 Oct - 18:15:02 10° WNW 18:18:48 35° SW 18:22:46 10° SSE visible
19 Oct - 09:55:53 10° SSW 09:59:08 28° SE 10:02:24 10° ENE daylight
19 Oct - 11:35:56 10° W 11:39:30 42° NNW 11:43:07 10° NE daylight
19 Oct - 13:18:08 10° NW 13:20:44 18° N 13:23:26 10° NE daylight
19 Oct - 14:59:21 10° NW 15:02:19 20° NNE 15:05:23 10° ENE daylight
19 Oct - 16:39:26 10° NW 16:43:23 63° NNE 16:47:34 10° ESE daylight
19 Oct - 18:20:30 10° W 18:23:39 21° SW 18:26:56 10° S visible
20 Oct - 10:00:22 10° SW 10:04:01 50° SE 10:07:40 10° ENE daylight
20 Oct - 11:41:19 10° W 11:44:38 29° NNW 11:48:00 10° NE daylight
20 Oct - 13:23:33 10° NW 13:26:03 16° N 13:28:36 10° NE daylight
20 Oct - 15:04:18 10° NW 15:07:33 25° NNE 15:10:56 10° ENE daylight
20 Oct - 16:44:24 10° WNW 16:48:23 82° SW 16:52:37 10° SE daylight
20 Oct - 18:26:43 10° WSW 18:28:27 12° SW 18:30:13 10° SSW visible
21 Oct - 08:27:51 10° SSE 08:29:01 11° SE 08:30:10 10° ESE daylight
21 Oct - 10:05:12 10° SW 10:08:58 88° SE 10:12:44 10° NE daylight
21 Oct - 11:46:48 10° WNW 11:49:50 23° NNW 11:52:54 10° NE daylight
21 Oct - 13:28:51 10° NW 13:31:22 17° N 13:33:56 10° NE daylight
21 Oct - 15:09:12 10° NW 15:12:44 32° NNE 15:16:26 10° E daylight
21 Oct - 16:49:30 10° WNW 16:53:20 48° SW 16:57:25 10° SSE daylight
22 Oct - 08:30:58 10° S 08:33:47 20° SE 08:36:35 10° E daylight
22 Oct - 10:10:17 10° WSW 10:14:00 56° NNW 10:17:42 10° NE daylight
22 Oct - 11:52:21 10° WNW 11:55:05 19° NNW 11:57:51 10° NE daylight
22 Oct - 13:33:58 10° NW 13:36:39 18° N 13:39:24 10° NE daylight
22 Oct - 15:14:05 10° NW 15:17:51 46° NNE 15:21:47 10° ESE daylight
22 Oct - 16:54:45 10° WNW 16:58:14 29° SW 17:01:52 10° SSE visible
23 Oct - 08:35:09 10° SSW 08:38:38 34° SE 08:42:04 10° ENE daylight
23 Oct - 10:15:33 10° W 10:19:04 37° NNW 10:22:36 10° NE daylight
23 Oct - 11:57:52 10° NW 12:00:22 17° N 12:02:54 10° NE daylight
23 Oct - 13:38:57 10° NW 13:41:55 21° NNE 13:44:58 10° ENE daylight
23 Oct - 15:19:01 10° NW 15:22:53 73° NNE 15:26:58 10° ESE daylight
23 Oct - 17:00:25 10° W 17:03:04 17° SW 17:05:48 10° S visible
24 Oct - 08:39:45 10° SW 08:43:33 61° SE 08:47:14 10° ENE daylight
24 Oct - 10:20:59 10° W 10:24:14 27° NNW 10:27:29 10° NE daylight
24 Oct - 12:03:16 10° NW 12:05:41 16° N 12:08:07 10° NE daylight
24 Oct - 13:43:52 10° NW 13:47:08 26° NNE 13:50:29 10° E daylight
24 Oct - 15:24:01 10° WNW 15:27:53 69° SW 15:31:56 10° SE daylight
